Location: Unspecified
(52.4292°N, 19.3359°E)
Time: 21:55:24
(UTC+02:00)

A-11 Canister half - Pass Details

Date: 26 May 2024
Orbit: 1524 x 1683 km, 47.3° (Epoch: 19 June)

Event Time Altitude Azimuth Distance (km) Brightness Sun altitude
Rises 01:49:12 0° 280° (W) 4,742 11.5 -14.9°
Reaches altitude 10° 01:52:20 10° 275° (W) 3,777 10.9 -14.7°
Maximum altitude 02:01:28 51° 204° (SSW) 1,951 9.2 -14.3°
Drops below altitude 10° 02:10:54 10° 132° (SE) 3,889 10.9 -13.8°
Sets 02:14:11 0° 128° (SE) 4,892 11.5 -13.6°
